F5MAP-5 Weather Reports


Display with metric or nautical units.
time (UTC)temp
F
wind
direction
speed
MPH
gust
MPH
rain 1hr
in
rain 24hr
in
rain mn
in
humidity
%
barometer
mb
20260901085212 71 332 1.0 3.0 0.00 0.00 0.00 68 1021.9
20260901084212 71 121 2.0 4.0 0.00 0.00 0.00 69 1022.0
20260901083212 70 178 2.0 4.0 0.00 0.00 0.00 72 1021.9
20260901082212 69 321 1.0 4.0 0.00 0.00 0.00 74 1022.0
20260901081212 68 184 2.0 7.0 0.00 0.00 0.00 78 1022.0
20260901075212 66 277 3.0 7.0 0.00 0.00 0.00 84 1021.9
20260901074212 65 206 2.0 5.0 0.00 0.00 0.00 87 1021.9
20260901073212 64 232 0.0 4.0 0.00 0.00 0.00 88 1021.9
20260901072212 63 268 0.0 1.0 0.00 0.00 0.00 89 1021.9
20260901071212 62 244 0.0 0.0 0.00 0.00 0.00 89 1021.8
20260901070212 62 271 0.0 0.0 0.00 0.00 0.00 90 1021.9
20260901065212 61 260 0.0 1.0 0.00 0.00 0.00 90 1021.9
20260901064212 61 190 0.0 0.0 0.00 0.00 0.00 90 1022.0
20260901063211 60 215 0.0 0.0 0.00 0.00 0.00 90 1021.9
20260901062212 60 224 0.0 0.0 0.00 0.00 0.00 90 1021.9
20260901061212 59 245 0.0 0.0 0.00 0.00 0.00 90 1021.7
20260901060212 59 222 0.0 0.0 0.00 0.00 0.00 90 1021.8
20260901055212 59 234 0.0 0.0 0.00 0.00 0.00 89 1021.6
20260901054211 59 225 0.0 0.0 0.00 0.00 0.00 89 1021.6
20260901053211 58 258 0.0 0.0 0.00 0.00 0.00 89 1021.5
20260901052212 58 277 0.0 0.0 0.00 0.00 0.00 88 1021.5
20260901051211 58 217 0.0 0.0 0.00 0.00 0.00 88 1021.4
20260901050211 58 254 0.0 0.0 0.00 0.00 0.00 88 1021.4
20260901045211 59 223 0.0 0.0 0.00 0.00 0.00 88 1021.4
20260901044214 59 210 0.0 0.0 0.00 0.00 0.00 88 1021.4
20260901043211 59 195 0.0 0.0 0.00 0.00 0.00 87 1021.3
20260901042211 59 209 0.0 0.0 0.00 0.00 0.00 87 1021.3
20260901041211 59 252 0.0 0.0 0.00 0.00 0.00 87 1021.3
20260901040212 59 203 0.0 0.0 0.00 0.00 0.00 86 1021.3
20260901035211 60 211 0.0 0.0 0.00 0.00 0.00 86 1021.2
20260901034212 60 263 0.0 0.0 0.00 0.00 0.00 86 1021.0
20260901033212 60 194 1.0 3.0 0.00 0.00 0.00 86 1021.1
20260901032211 60 211 1.0 3.0 0.00 0.00 0.00 85 1021.2
20260901031212 60 264 1.0 3.0 0.00 0.00 0.00 85 1021.1
20260901030211 60 221 1.0 3.0 0.00 0.00 0.00 85 1021.0
20260901025211 60 228 0.0 4.0 0.00 0.00 0.00 84 1021.0
20260901024211 61 262 1.0 4.0 0.00 0.00 0.00 84 1021.1
20260901023212 61 225 0.0 0.0 0.00 0.00 0.00 84 1021.1
20260901022211 61 211 0.0 0.0 0.00 0.00 0.00 83 1021.2
20260901021211 61 211 0.0 0.0 0.00 0.00 0.00 83 1021.1
20260901020211 62 175 0.0 0.0 0.00 0.00 0.00 83 1021.0
20260901015211 62 193 0.0 6.0 0.00 0.00 0.00 83 1020.9
20260901014211 62 149 0.0 2.0 0.00 0.00 0.00 82 1020.9
20260901013211 62 307 0.0 2.0 0.00 0.00 0.00 82 1020.9
20260901012211 62 263 2.0 4.0 0.00 0.00 0.00 83 1020.8
20260901011211 62 255 3.0 4.0 0.00 0.00 0.00 83 1020.9
20260901010211 62 251 2.0 5.0 0.00 0.00 0.00 83 1020.8
20260901005211 62 250 2.0 5.0 0.00 0.00 0.00 82 1020.8
20260901004211 62 238 1.0 4.0 0.00 0.00 0.00 82 1020.7
20260901003211 62 213 0.0 0.0 0.00 0.00 0.00 82 1020.7
20260901002211 62 244 0.0 0.0 0.00 0.00 0.00 82 1020.8
20260901001211 62 243 0.0 0.0 0.00 0.00 0.00 82 1020.8
20260901000211 62 175 1.0 3.0 0.00 0.00 0.00 82 1020.7
20260831235211 62 176 2.0 4.0 0.00 0.00 0.00 81 1020.7
20260831234211 62 219 1.0 3.0 0.00 0.00 0.00 81 1020.7
20260831233212 62 228 3.0 4.0 0.00 0.00 0.00 81 1020.7
20260831232211 62 223 1.0 4.0 0.00 0.00 0.00 81 1020.7
20260831231211 62 193 2.0 4.0 0.00 0.00 0.00 81 1020.7
20260831230211 62 215 3.0 5.0 0.00 0.00 0.00 80 1020.6
20260831225211 62 193 3.0 4.0 0.00 0.04 0.00 80 1020.7
20260831224211 62 167 3.0 5.0 0.00 0.04 0.00 79 1020.6
20260831223211 62 188 1.0 4.0 0.00 0.04 0.00 79 1020.6
20260831222211 63 228 2.0 7.0 0.00 0.04 0.00 78 1020.8
20260831221211 63 186 2.0 4.0 0.00 0.04 0.00 78 1020.7
20260831220211 63 167 3.0 5.0 0.00 0.04 0.00 77 1020.8
20260831215211 63 163 3.0 5.0 0.00 0.06 0.06 77 1020.7
20260831214211 64 182 0.0 0.0 0.00 0.06 0.06 76 1020.7
20260831213211 64 171 0.0 1.0 0.00 0.06 0.06 74 1020.7
20260831212211 65 138 2.0 5.0 0.00 0.06 0.06 73 1020.8
20260831211212 66 306 0.0 0.0 0.00 0.06 0.06 71 1020.8
20260831210211 67 306 0.0 3.0 0.00 0.06 0.06 69 1020.6
20260831205211 67 320 1.0 3.0 0.00 0.06 0.06 68 1020.4
20260831204211 67 272 0.0 0.0 0.00 0.06 0.06 68 1020.4
20260831203211 67 328 0.0 0.0 0.00 0.06 0.06 67 1020.4
20260831202211 68 329 1.0 5.0 0.00 0.06 0.06 66 1020.2
20260831201211 68 306 3.0 5.0 0.00 0.06 0.06 66 1020.1
20260831200212 68 289 4.0 7.0 0.00 0.06 0.06 66 1020.1
20260831195211 69 267 4.0 8.0 0.00 0.06 0.06 65 1020.1
20260831194211 69 270 3.0 7.0 0.00 0.06 0.06 65 1020.0
20260831193211 69 270 5.0 9.0 0.00 0.06 0.06 64 1019.9
20260831192211 70 274 4.0 10.0 0.00 0.06 0.06 63 1019.8
20260831191211 70 267 5.0 8.0 0.00 0.06 0.06 62 1019.6
20260831190211 71 223 3.0 6.0 0.00 0.06 0.06 61 1019.6
20260831185211 71 218 4.0 10.0 0.00 0.06 0.06 60 1019.4
20260831184211 72 232 6.0 12.0 0.00 0.06 0.06 59 1019.3
20260831183212 72 257 9.0 17.0 0.00 0.06 0.06 57 1019.3
20260831182211 73 257 5.0 10.0 0.00 0.06 0.06 57 1019.1
20260831181211 73 218 2.0 4.0 0.00 0.06 0.06 56 1018.8
20260831180211 73 228 3.0 7.0 0.00 0.06 0.06 56 1018.7
20260831175211 73 269 5.0 11.0 0.00 0.06 0.06 56 1018.6
20260831174211 74 245 3.0 9.0 0.00 0.06 0.06 55 1018.5
20260831173211 74 278 4.0 10.0 0.00 0.06 0.06 54 1018.5
20260831172211 74 236 6.0 16.0 0.00 0.06 0.06 54 1018.4
20260831171211 75 254 7.0 15.0 0.00 0.06 0.06 53 1018.4
20260831170212 75 273 6.0 11.0 0.00 0.06 0.06 53 1018.3
20260831165211 76 286 4.0 8.0 0.00 0.06 0.06 53 1018.5
20260831164211 76 296 7.0 12.0 0.00 0.06 0.06 52 1018.5
20260831163211 76 255 6.0 13.0 0.00 0.06 0.06 51 1018.6
20260831162211 76 266 6.0 16.0 0.00 0.06 0.06 51 1018.6
20260831161211 77 244 3.0 10.0 0.00 0.06 0.06 52 1018.5
20260831160211 76 251 10.0 17.0 0.00 0.06 0.06 50 1018.4
20260831155211 76 251 12.0 20.0 0.00 0.06 0.06 50 1018.4
20260831154211 77 280 6.0 21.0 0.00 0.06 0.06 50 1018.3
20260831153211 77 273 10.0 22.0 0.00 0.06 0.06 49 1018.2
20260831152211 77 44 8.0 16.0 0.00 0.06 0.06 48 1018.0
20260831151211 77 265 8.0 20.0 0.00 0.06 0.06 48 1018.0
20260831150211 77 293 8.0 17.0 0.00 0.06 0.06 48 1017.8
20260831145210 77 250 12.0 25.0 0.00 0.06 0.06 49 1017.7
20260831144211 78 283 11.0 21.0 0.00 0.06 0.06 50 1017.8
20260831143211 78 244 8.0 19.0 0.00 0.06 0.06 50 1017.9
20260831142211 78 249 11.0 20.0 0.00 0.06 0.06 49 1017.6
20260831141210 78 295 11.0 24.0 0.00 0.06 0.06 51 1017.7
20260831140211 78 269 8.0 17.0 0.00 0.06 0.06 51 1017.5
20260831135211 78 262 9.0 24.0 0.00 0.06 0.06 50 1017.6
20260831134211 79 259 11.0 20.0 0.00 0.06 0.06 49 1017.7
20260831133211 79 287 14.0 26.0 0.00 0.06 0.06 48 1017.8
20260831132210 80 288 11.0 20.0 0.00 0.06 0.06 48 1017.8
20260831131211 80 278 13.0 20.0 0.00 0.06 0.06 50 1017.8
20260831130210 81 249 11.0 23.0 0.00 0.06 0.06 49 1017.7
20260831125210 82 360 11.0 23.0 0.00 0.06 0.06 49 1017.8
20260831124211 81 289 14.0 22.0 0.00 0.06 0.06 48 1017.7
20260831123210 81 259 10.0 19.0 0.00 0.06 0.06 49 1017.6
20260831122210 81 271 11.0 25.0 0.00 0.06 0.06 48 1017.6
20260831121210 80 236 11.0 21.0 0.00 0.06 0.06 50 1017.6
20260831120210 80 220 13.0 20.0 0.00 0.06 0.06 50 1017.7
20260831115210 80 225 7.0 19.0 0.00 0.06 0.06 52 1017.6
20260831114211 79 273 9.0 19.0 0.00 0.06 0.06 52 1017.7
20260831113211 79 275 10.0 19.0 0.00 0.06 0.06 53 1017.7
20260831112211 78 282 5.0 15.0 0.00 0.06 0.06 55 1018.1
20260831111210 77 192 9.0 20.0 0.00 0.06 0.06 55 1018.2
20260831110212 76 249 11.0 20.0 0.00 0.06 0.06 58 1018.2
20260831110210 76 249 11.0 20.0 0.00 0.06 0.06 58 1018.2
20260831105210 74 226 12.0 21.0 0.00 0.06 0.06 59 1018.3
20260831104211 74 242 10.0 18.0 0.00 0.06 0.06 59 1018.3
20260831103210 74 271 9.0 21.0 0.00 0.06 0.06 60 1018.4
20260831102210 74 239 9.0 15.0 0.00 0.06 0.06 61 1018.4
20260831101210 74 298 6.0 11.0 0.00 0.06 0.06 62 1018.4
20260831100210 74 244 10.0 20.0 0.00 0.06 0.06 61 1018.4
20260831095210 74 234 6.0 16.0 0.00 0.06 0.06 63 1018.4
20260831094211 74 275 8.0 23.0 0.00 0.06 0.06 62 1018.4
20260831093210 74 229 7.0 17.0 0.00 0.06 0.06 63 1018.4
20260831092210 73 266 10.0 16.0 0.00 0.06 0.06 63 1018.6
20260831091210 72 297 8.0 19.0 0.00 0.06 0.06 64 1018.4
20260831090210 72 213 10.0 22.0 0.00 0.06 0.06 66 1018.2